Flag for U.S.A. Weather past 2 weeks in Woodstock, New York, U.S.A.

Now
47 °F

Sunny.


Feels Like: 43 °F
Forecast: 26 / 45 °F
Wind: 8 mph from North

Location: Dutchess County Airport

Current Time: Apr 1, 2015 at 2:50:20 PM

Latest Report: Apr 1, 2015 at 1:53 PM


Visibility: 10 mi

Pressure: 30.05 "Hg

Humidity: 29%

Dew point: 16 °F

Location of WoodstockLocation

Historic Weather in Woodstock — Graph

°F

Woodstock temperature yesterday

Maximum temperature yesterday: 45 °F (at 12:53 PM)
Minimum temperature yesterday: 33 °F (at 11:53 PM)
Average temperature yesterday: 38 °F

Past Weeks' High & Low Weather Summary

 TemperatureHumidityPressure
High50 °F (Mar 17, 1:53 PM)97% (Mar 25, 11:53 PM)30.41 "Hg (Mar 25, 11:53 PM)
Low15 °F (Mar 19, 6:53 AM)16% (Mar 29, 4:53 PM)29.55 "Hg (Mar 17, 1:53 PM)
Average34 °F58%30.04 "Hg
* Reported Mar 17 1:53 PM — Apr 1 1:53 PM, Woodstock, Weather by CustomWeather, © 2015

Note: Actual official high and low records may vary slightly from our data, if they occured in-between our weather recording intervals... More about our weather records

Advertising

Woodstock weather history for previous 24 hours

 ConditionsComfort  
Time TempWeatherWind HumidityBarometerVisibility
1:53 PM
Wed, Apr 1
47 °FSunny.8 mph29%30.05 "Hg10 mi
12:53 PM44 °FSunny.9 mph28%30.06 "Hg10 mi
11:53 AM42 °FSunny.8 mph25%30.05 "Hg10 mi
10:53 AM41 °FSunny.9 mph32%30.05 "Hg10 mi
9:53 AM36 °FSunny.6 mph50%30.05 "Hg10 mi
8:53 AM33 °FSunny.No wind63%30.03 "Hg10 mi
7:53 AM27 °FSunny.No wind85%30.01 "Hg10 mi
6:53 AM26 °FClear.No wind88%29.98 "Hg10 mi
5:53 AM27 °FLight rain. Clear.No wind81%29.94 "Hg10 mi
4:53 AM29 °FLight rain. Clear.No wind75%29.91 "Hg10 mi
3:53 AM30 °FLight rain. Clear.3 mph82%29.88 "Hg10 mi
2:53 AM30 °FLight rain. Passing clouds.6 mph92%29.87 "Hg8 mi
1:53 AM32 °FLight rain. Low clouds.No wind92%29.85 "Hg7 mi
1:02 AM32 °FLight rain. Ice fog.5 mph92%29.84 "Hg5 mi
12:53 AM32 °FLight rain. Ice fog.8 mph92%29.83 "Hg2 mi
11:53 PM
Tue, Mar 31
33 °FLight rain. Fog.3 mph96%29.82 "Hg1 mi
10:53 PM34 °FLight rain. Fog.5 mph92%29.81 "Hg1 mi
10:04 PM34 °FLight rain. Fog.6 mph88%29.81 "Hg0 mi
9:57 PM34 °FLight rain. Fog.5 mph88%29.81 "Hg1 mi
8:53 PM34 °FLight rain. Fog.No wind92%29.79 "Hg6 mi
7:53 PM34 °FLight rain. Low clouds.3 mph92%29.78 "Hg8 mi
6:53 PM35 °FLight rain. Fog.No wind92%29.76 "Hg3 mi
5:53 PM37 °FFog.3 mph86%29.76 "Hg6 mi
4:53 PM38 °FLight rain. Cloudy.3 mph83%29.76 "Hg7 mi
3:53 PM39 °FMostly cloudy.8 mph76%29.76 "Hg5 mi
2:53 PM42 °FMostly cloudy.13 mph55%29.75 "Hg10 mi
Weather by CustomWeather, © 2015

See weather overviewHow to use our weather pages